Zurück zum Katalog

NOAA 16 DEB

AktivSSO
NORAD 41138·DEBRIS·🇺🇸 United States

Gestartet Sep 21, 2000 von Vandenberg Space Force Base

Loading…

Nächste Überflüge (nächste 24 Stunden)

TLE

AktuellSource: Space-Track

Epoche: Sep 14, 2026, 11:12 UTC

1 41138U 00055BV  26257.46704577 -.00000795  00000-0 -31069-3 0  9994
2 41138  98.7020 342.2874 0012908 118.8722 241.3755 14.26593076557001

Verfolge NOAA 16 DEB in Echtzeit mit AllMySat

Download on the App Store